Location: Unspecified
(46.6049°N, 0.0000°E)
Time: 06:29:01
(UTC+00:00)

Envisat - Visible Passes

Search period start: 04 April 2026 00:00
Search period end: 14 April 2026 00:00
Orbit: 761 x 763 km, 98.4° (Epoch: 29 March)

Date Brightness Start Highest point End Pass type
(mag) Time Alt. Az. Time Alt. Az. Time Alt. Az.
4 Apr 4.8 01:43:15 10° NE 01:47:12 24° E 01:47:12 24° E visible
4 Apr 3.3 03:21:37 10° N 03:26:29 48° WNW 03:27:20 43° W visible
5 Apr 5.6 01:07:52 10° ENE 01:09:03 11° E 01:09:04 11° E visible
5 Apr 2.9 02:43:40 10° NNE 02:48:46 81° ESE 02:49:11 74° SSE visible
5 Apr 4.7 04:24:01 10° NNW 04:27:03 16° WNW 04:29:20 12° W visible
6 Apr 4.0 02:06:07 10° NNE 02:10:51 38° E 02:11:03 37° ESE visible
6 Apr 3.9 03:45:14 10° N 03:49:40 31° WNW 03:51:12 26° W visible
7 Apr 5.1 01:29:17 10° NE 01:32:42 18° E 01:32:55 18° E visible
7 Apr 3.0 03:07:02 10° N 03:12:04 64° WNW 03:13:03 52° WSW visible
7 Apr 5.1 04:49:05 10° NW 04:50:01 10° NW 04:50:56 10° WNW visible
8 Apr 3.2 02:29:14 10° NNE 02:34:16 61° ESE 02:34:54 56° SE visible
8 Apr 4.5 04:09:03 10° NNW 04:12:45 21° WNW 04:15:02 15° W visible
9 Apr 4.5 01:51:53 10° NE 01:56:15 28° E 01:56:46 28° ESE visible
9 Apr 3.6 03:30:33 10° N 03:35:16 40° WNW 03:36:54 31° WSW visible
10 Apr 5.4 01:15:37 10° ENE 01:18:01 13° E 01:18:37 13° E visible
10 Apr 2.9 02:52:30 10° NNE 02:57:37 85° WNW 02:58:45 55° SSW visible
10 Apr 4.9 04:33:17 10° NNW 04:35:45 14° NW 04:38:14 10° W visible
11 Apr 3.7 02:14:51 10° NNE 02:19:43 45° E 02:20:36 41° SE visible
11 Apr 4.1 03:54:14 10° N 03:58:25 26° WNW 04:00:44 19° WSW visible
12 Apr 4.8 01:37:46 10° NE 01:41:38 21° E 01:42:27 21° ESE visible
12 Apr 3.2 03:15:56 10° N 03:20:52 53° WNW 03:22:35 36° SW visible
13 Apr 3.1 02:38:01 10° NNE 02:43:07 73° ESE 02:44:26 49° S visible
13 Apr 4.6 04:18:10 10° NNW 04:21:28 18° WNW 04:24:34 11° W visible
